RH
37 40 44 49 54 58 61 64 66 66 65 64 63 65 72 80 83 82 86 90 83 68 60 60 59 59 60 59 54 50 48 47 44 41 38 37 36 35 34 34 30 23 17 13 9 8 7 6 8 19 33 40 44 46 47 47 46 45 46 49 51 58 68
36 38 40 44 49 55 59 61 63 64 64 63 63 65 70 79 85 84 83 88 88 75 61 59 61 60 60 61 59 55 51 48 46 43 39 37 37 36 35 36 35 31 26 22 17 12 8 5 4 6 15 28 40 47 50 49 47 46 44 45 46 49 55
36 37 39 41 46 51 56 60 61 61 62 64 65 65 69 78 86 86 84 85 89 83 67 57 58 61 61 60 58 56 52 49 46 44 41 39 38 36 36 37 36 34 31 27 24 19 13 9 6 3 4 11 24 40 51 53 51 50 49 47 46 46 48
37 37 37 39 43 48 53 57 59 61 62 65 67 66 68 78 87 87 86 85 87 86 76 61 54 56 58 59 57 56 54 51 47 45 42 40 40 38 38 39 39 39 36 32 28 23 19 15 11 7 4 3 9 23 42 55 58 58 58 54 50 49 47
38 38 38 39 42 46 50 53 57 61 63 65 69 68 69 79 88 88 86 86 85 85 82 70 55 47 46 49 53 55 55 53 52 50 48 45 45 44 44 44 44 43 41 37 31 26 23 21 18 14 8 5 3 7 25 50 65 69 69 66 59 54 50
39 39 39 41 43 45 48 50 54 59 63 66 69 70 72 80 86 86 84 85 85 84 85 79 64 50 40 36 37 41 44 44 43 43 42 42 41 42 42 42 42 41 38 34 29 25 23 22 20 19 15 11 7 3 8 31 61 79 85 82 74 65 57
39 39 40 43 45 47 48 49 53 57 61 66 69 70 75 81 84 83 83 84 84 83 83 83 75 62 49 38 31 29 28 29 29 28 27 26 25 24 23 22 21 21 21 19 17 16 16 17 18 19 19 16 14 9 3 9 33 62 86 96 92 82 75
41 41 42 45 48 49 49 50 54 57 60 65 68 71 77 82 82 81 81 84 86 83 80 83 84 76 65 53 43 35 28 25 24 25 25 24 22 19 16 13 11 9 8 7 7 7 8 10 12 13 15 18 20 17 10 4 8 26 57 88 100 96 91
49 49 49 50 52 53 53 54 57 57 58 64 69 72 77 81 81 81 81 83 87 87 82 81 86 87 81 71 61 52 43 36 30 27 26 26 26 25 23 21 17 14 11 8 6 5 5 5 6 6 8 14 19 18 14 11 6 5 19 49 80 97 99
59 58 57 57 58 58 58 60 63 61 59 63 69 74 79 82 82 81 81 82 85 88 87 83 82 87 89 85 79 71 63 56 47 39 33 30 27 25 26 26 25 23 20 16 13 10 7 5 5 5 6 9 12 14 14 12 10 6 5 13 37 67 89
65 65 65 64 65 65 65 67 69 66 63 65 70 74 79 82 84 84 85 85 85 87 90 89 85 83 85 88 89 87 81 74 67 58 51 45 38 32 28 26 26 26 26 25 23 20 16 12 8 6 7 7 8 10 11 10 9 7 6 5 9 25 51
68 68 68 68 69 70 71 73 74 70 67 70 73 74 79 82 83 82 84 88 89 88 91 93 92 88 84 84 88 91 91 89 85 78 70 62 54 47 39 33 29 27 26 27 27 26 25 22 18 14 11 9 8 7 8 9 9 8 7 8 7 7 16
71 71 71 69 70 73 75 78 79 73 71 75 78 78 82 85 81 77 77 82 88 92 93 93 94 93 89 86 85 87 91 92 92 91 86 79 71 62 54 47 39 34 30 27 27 28 27 27 27 25 22 19 16 12 10 8 7 7 7 8 12 12 8
74 75 74 71 70 74 79 82 82 76 75 80 83 84 88 89 85 79 75 76 82 91 96 98 97 95 93 90 86 84 88 90 90 91 91 90 86 80 74 67 59 50 42 34 29 28 28 28 28 28 29 28 27 25 23 20 16 15 20 28 36 40 33
76 77 76 74 71 74 81 87 85 79 79 85 89 92 96 94 89 83 78 75 77 84 93 99 101 98 96 94 88 83 84 87 89 90 89 87 86 86 86 84 82 77 67 54 42 33 30 31 29 28 29 29 32 35 34 34 35 36 46 59 63 58 51
78 77 77 76 72 74 83 90 87 81 84 90 94 98 101 98 91 85 80 76 76 81 86 91 96 98 98 96 92 87 84 85 87 89 89 87 85 87 89 90 93 94 90 80 66 51 41 37 35 33 30 29 32 35 36 41 45 50 67 85 87 76 71
79 79 79 78 75 75 84 93 90 85 88 95 98 102 104 99 91 85 81 79 80 83 84 84 87 92 94 96 97 98 95 90 86 86 88 89 90 91 91 93 97 99 96 91 83 71 57 46 42 40 37 35 35 35 38 44 49 62 84 99 100 96 94
81 82 81 81 78 76 84 94 93 87 92 100 102 103 103 98 89 85 84 84 86 88 88 87 87 89 90 91 93 99 104 101 94 89 85 86 92 94 92 95 100 99 96 93 89 83 73 59 49 46 44 42 41 41 43 47 55 78 99 102 100 100 100
83 84 83 82 81 79 85 95 96 92 96 102 103 104 103 95 89 88 88 87 88 92 94 95 95 93 92 90 88 92 99 103 102 96 88 85 90 91 92 98 101 96 96 99 96 91 86 75 61 52 48 47 47 49 51 52 61 84 101 100 98 101 100
84 85 85 83 83 85 89 96 98 98 101 103 102 103 102 95 90 92 91 87 87 91 96 100 101 99 97 97 94 92 95 99 101 101 97 93 88 85 91 101 102 94 94 98 99 97 95 90 76 61 52 50 51 54 57 58 66 83 96 98 99 100 100
83 87 89 86 84 89 94 97 99 101 102 103 102 102 100 95 92 94 92 85 82 87 93 98 101 100 99 101 101 98 98 99 100 101 100 96 87 82 90 101 101 97 95 94 95 96 97 95 87 71 58 53 55 56 57 61 73 85 92 97 101 100 100
82 88 92 90 87 90 95 98 100 101 102 103 102 101 100 96 94 95 92 83 79 85 91 94 98 101 100 101 102 103 102 102 102 102 101 98 92 86 89 97 100 100 99 95 92 94 95 95 92 82 67 58 58 58 57 64 79 88 89 95 102 100 99
79 88 94 94 92 93 95 97 99 101 103 103 103 103 101 97 94 93 90 82 79 84 91 94 97 101 103 103 102 103 103 102 102 102 100 100 100 96 95 98 101 99 99 97 93 92 93 93 93 88 77 65 62 62 63 73 87 92 90 95 102 101 99
74 86 94 95 95 97 98 98 99 102 103 102 101 103 102 99 95 92 89 84 80 82 89 96 100 103 104 104 102 102 103 102 101 101 99 95 95 96 98 100 99 94 95 98 95 91 93 94 94 92 86 76 69 69 76 87 97 98 94 95 98 101 102
72 86 94 94 95 99 101 100 101 103 103 101 101 103 104 101 97 94 92 90 85 82 86 93 99 102 104 105 102 100 102 103 101 101 101 96 90 87 89 94 95 91 91 95 94 92 97 101 98 95 94 89 82 81 90 99 102 101 100 98 97 98 99
71 83 91 93 96 100 102 101 101 102 101 101 100 102 103 100 97 96 95 94 90 85 83 87 92 97 101 103 102 99 99 102 103 101 101 101 98 91 86 90 96 95 92 93 93 92 97 104 102 98 100 100 95 91 95 100 102 102 102 101 100 98 96
66 78 88 94 98 102 102 101 100 101 101 100 100 102 102 98 95 95 95 93 90 87 86 87 89 92 95 99 100 98 96 97 100 102 101 102 104 101 96 96 100 100 97 97 97 92 93 102 105 100 99 103 102 97 96 99 101 102 102 101 101 101 99
63 72 82 92 100 102 102 101 100 100 100 98 97 97 96 93 94 95 93 90 88 88 89 89 89 88 89 92 97 98 95 92 93 98 102 103 103 104 101 100 101 101 99 99 99 93 92 99 105 102 99 100 102 101 101 101 101 102 103 103 103 102 101
60 64 72 89 100 102 101 101 100 100 99 97 96 94 91 91 95 95 91 88 89 90 91 90 89 87 86 89 95 98 96 90 88 93 100 103 104 104 103 101 101 101 98 97 98 96 95 98 101 102 102 101 100 101 102 101 101 101 102 103 102 99 97
53 59 69 89 102 103 101 101 100 100 99 99 99 98 97 98 97 92 89 90 92 93 93 90 88 86 86 90 95 99 98 94 90 92 99 103 103 103 103 102 102 102 99 97 96 95 97 100 100 101 102 101 100 100 101 101 101 101 101 101 101 98 97
46 60 70 82 94 101 103 103 103 103 102 101 101 100 101 101 96 90 89 92 94 94 93 90 87 86 88 92 96 98 99 98 96 97 100 101 102 102 102 102 103 102 101 100 98 96 96 98 101 102 102 100 98 98 100 102 101 99 98 99 99 98 99
41 58 66 70 80 90 95 99 100 100 100 100 98 97 97 96 92 90 91 92 92 93 92 90 89 90 93 97 100 100 100 101 101 101 100 100 101 102 101 101 102 101 100 100 101 100 96 95 98 101 102 101 99 96 96 98 100 100 99 98 97 97 99
36 51 60 67 73 78 82 87 90 91 93 94 93 93 92 89 87 89 91 92 92 93 93 92 92 94 98 101 101 100 101 101 101 101 100 100 101 101 101 101 101 101 101 101 101 101 99 96 95 96 97 99 101 100 98 97 97 97 99 100 100 100 100
32 44 56 66 72 75 78 81 83 85 88 90 92 92 91 89 88 90 92 94 94 93 93 94 94 98 102 103 101 100 101 101 101 101 100 100 100 100 100 100 100 100 101 100 100 101 100 99 98 96 95 95 97 99 100 100 99 98 98 99 98 98 98
28 38 47 55 63 71 76 77 77 79 82 86 89 91 91 91 91 91 92 93 94 93 94 96 99 102 103 102 100 101 101 101 101 100 100 100 100 100 100 100 100 100 100 100 101 101 100 99 98 98 97 95 95 95 96 97 99 101 101 100 99 97 97
21 29 35 40 48 61 71 76 77 78 80 83 87 89 90 92 92 91 91 91 91 93 95 98 102 105 104 102 101 101 101 101 101 100 100 100 100 100 100 100 100 100 100 101 102 102 101 100 99 98 97 96 95 95 95 95 95 97 99 101 102 101 100
Wind_Speed
23 23 24 24 24 26 27 28 28 28 28 28 28 26 25 25 25 24 23 24 24 24 24 24 25 27 30 34 40 44 46 49 52 55 56 57 57 57 56 55 55 56 58 58 59 63 66 66 66 67 68 69 70 70 71 72 72 71 70 70 70 70 71
25 25 25 25 25 26 27 29 29 29 29 28 28 27 25 25 25 24 23 23 22 21 22 21 21 22 25 29 33 38 41 44 48 51 53 53 54 54 53 53 52 52 52 52 50 52 56 59 62 66 67 69 71 71 71 73 74 73 73 72 72 72 71
27 27 26 26 26 26 27 29 29 29 29 29 28 27 25 25 25 24 22 22 21 20 19 18 17 17 19 24 28 32 35 38 42 45 48 48 49 50 50 50 50 50 50 50 49 47 48 50 54 60 64 68 71 72 72 73 74 74 75 75 74 74 73
29 29 28 27 27 27 27 28 29 29 29 29 28 27 25 24 24 24 22 20 21 19 17 16 15 14 15 18 22 26 29 32 35 38 41 43 43 45 46 46 46 47 48 49 50 48 46 46 48 52 58 64 69 72 73 74 75 75 75 75 76 76 76
31 30 30 29 28 28 28 28 29 29 29 29 28 27 25 24 23 23 21 19 19 19 17 15 14 14 14 14 15 17 20 23 26 29 32 35 36 37 39 40 42 44 45 47 49 49 48 48 47 48 51 57 64 69 73 75 75 76 75 75 76 77 77
32 32 31 30 29 29 29 29 28 29 29 28 28 27 25 24 23 23 21 18 17 18 17 15 14 14 14 13 13 13 15 16 19 21 24 26 29 31 33 35 38 40 43 46 48 49 50 51 50 49 49 51 57 64 70 74 76 76 76 76 76 76 77
33 32 32 31 30 30 30 29 28 28 29 28 27 26 24 23 22 22 21 19 16 16 16 15 13 13 14 15 15 14 15 16 17 19 20 22 24 26 29 32 35 38 41 44 47 49 51 52 52 52 51 50 52 57 64 69 75 78 78 77 77 77 76
33 32 32 31 30 30 29 28 27 28 29 28 26 25 23 22 21 21 20 19 17 16 15 14 14 13 13 14 16 17 18 18 19 20 20 21 22 24 26 28 30 33 36 39 42 45 47 50 52 52 52 51 51 54 58 62 68 75 79 78 77 78 77
33 32 31 31 31 30 29 28 27 27 29 28 25 24 23 21 20 20 19 19 18 17 15 14 13 13 13 13 14 16 19 21 22 23 23 23 24 25 26 26 27 29 30 33 35 37 40 44 47 48 50 51 50 51 54 56 60 67 75 78 79 79 77
32 32 31 31 31 30 29 27 26 27 28 27 25 23 22 21 20 20 19 19 18 18 17 15 14 13 13 14 13 14 17 19 22 24 25 26 27 28 28 28 28 28 28 29 30 31 34 36 38 41 44 47 47 46 48 51 55 60 65 71 77 80 79
32 31 31 31 31 29 28 26 26 27 28 26 25 24 22 20 19 19 19 19 19 18 18 17 16 14 13 13 14 14 15 17 19 21 23 25 28 30 31 31 31 30 29 29 29 29 29 30 31 33 37 40 41 41 42 44 47 51 55 60 67 74 78
32 31 31 31 30 29 27 26 27 28 27 25 24 24 23 21 19 18 17 18 19 18 19 19 18 17 15 14 14 14 14 15 16 18 19 22 25 28 31 32 33 32 31 31 31 30 29 28 27 27 29 31 34 36 36 37 39 43 47 51 55 61 71
32 31 30 30 30 29 27 26 27 27 26 25 23 23 24 23 22 19 16 16 17 18 19 19 20 19 18 16 16 15 14 14 15 17 18 19 21 24 26 28 31 33 34 34 34 33 31 29 27 26 24 24 26 29 30 31 34 36 39 42 45 48 55
31 30 30 30 29 28 26 25 27 27 25 24 22 22 24 25 23 21 18 16 16 17 17 18 20 21 20 20 19 17 16 16 16 17 17 19 20 20 21 22 25 29 32 34 36 35 34 32 30 29 26 23 22 25 27 27 28 30 32 35 36 36 39
30 30 30 29 28 27 26 25 27 27 25 23 21 21 23 25 24 22 21 19 16 16 16 17 19 21 21 22 22 20 19 19 19 19 19 19 19 19 19 19 20 22 26 30 34 35 35 34 33 32 30 27 26 27 28 27 27 29 30 31 31 32 34
29 29 28 28 27 26 25 25 26 26 25 23 21 21 24 26 24 23 23 20 15 14 17 18 20 21 21 22 23 23 23 22 21 21 20 19 18 18 19 19 18 19 23 26 29 32 33 34 34 34 33 30 30 31 31 29 30 31 30 29 28 29 29
28 27 26 27 27 25 24 24 25 25 24 23 21 22 25 26 25 23 23 20 15 14 16 17 18 19 18 19 20 22 24 25 24 23 22 19 18 18 18 16 16 20 24 25 27 28 30 32 33 34 34 32 32 33 32 32 33 31 28 26 25 25 24
26 26 25 25 26 25 23 24 25 25 24 22 21 23 26 27 25 23 21 19 16 16 16 15 16 17 17 17 18 19 22 24 26 26 23 20 18 18 17 15 16 21 23 25 27 28 28 30 31 32 33 33 34 35 35 35 34 30 28 27 25 24 23
25 25 25 24 24 24 23 23 24 25 24 23 22 24 27 27 24 21 21 20 17 16 16 16 17 18 18 19 18 18 20 22 25 27 26 22 21 19 15 13 17 21 20 21 25 27 28 28 29 30 32 32 33 35 37 38 36 32 31 30 28 25 23
24 23 23 23 23 23 22 22 24 24 24 24 24 24 26 26 23 21 21 21 18 16 16 17 18 18 19 19 20 19 19 20 22 26 27 26 24 20 13 12 17 20 18 19 21 23 26 28 28 29 31 31 32 35 38 38 36 35 35 33 30 27 24
23 22 22 23 22 22 22 22 23 24 25 25 24 24 25 25 23 21 22 21 17 15 16 17 18 19 18 18 19 19 19 20 20 23 27 29 26 20 15 15 18 19 19 19 20 21 24 26 27 28 30 30 32 35 38 38 36 36 36 35 33 29 24
23 22 22 22 22 22 22 22 23 24 24 25 25 24 24 23 22 22 23 21 18 16 17 17 18 19 19 18 17 17 19 21 20 21 25 28 27 22 18 18 20 21 21 21 20 20 21 24 26 27 28 29 32 34 36 37 37 38 38 37 34 30 25
23 22 21 22 22 22 21 22 23 24 24 24 25 24 23 22 22 22 23 22 19 17 17 18 19 20 20 19 18 17 18 20 22 22 24 25 24 21 20 20 22 23 23 22 21 20 19 20 23 25 27 28 30 31 33 35 37 39 39 38 36 31 28
22 22 21 21 21 21 21 22 22 23 24 24 25 25 23 23 23 23 23 23 20 19 18 19 20 21 21 21 20 18 18 19 22 25 26 26 25 23 22 23 24 23 22 21 21 20 18 18 21 23 25 26 27 28 31 34 36 38 40 40 37 33 30
22 22 22 21 20 20 21 22 22 24 25 25 26 26 25 24 24 24 24 24 22 20 19 20 21 21 22 22 22 20 19 19 21 24 26 27 27 26 25 25 25 23 22 22 21 19 16 17 19 21 22 24 26 27 31 34 35 37 39 40 39 37 34
21 22 21 20 18 18 20 21 23 24 26 27 27 27 26 26 26 25 25 25 24 23 21 21 21 22 22 22 23 22 21 21 21 23 25 27 28 27 25 25 26 25 23 21 20 18 15 14 16 18 20 23 26 29 31 33 35 36 38 39 40 40 38
20 21 20 19 17 16 19 21 23 25 27 28 28 28 28 28 27 27 27 26 26 25 24 22 22 23 23 23 23 24 23 22 22 22 23 25 27 27 27 26 27 27 25 22 21 18 14 12 15 17 20 23 26 28 29 30 31 33 35 37 39 41 41
19 19 19 18 15 15 17 21 24 26 28 28 28 28 28 28 28 28 28 28 28 27 26 24 24 24 24 24 24 24 25 24 22 21 22 24 25 27 28 28 28 27 26 24 22 18 14 12 14 17 20 22 23 24 24 24 26 28 30 32 35 38 39
18 18 18 16 14 14 16 21 24 27 28 28 28 29 29 29 29 30 30 29 29 29 28 26 25 25 25 25 25 25 25 25 23 21 21 23 24 26 27 29 29 28 27 25 22 19 16 14 14 16 19 21 22 22 22 23 25 26 27 29 31 33 33
17 16 15 14 14 16 18 22 24 27 28 29 30 30 30 30 31 31 30 30 30 30 29 28 27 26 26 26 25 25 25 25 23 22 22 22 23 24 25 27 28 29 28 27 24 21 19 17 16 18 21 24 25 24 25 27 27 27 27 29 30 31 30
16 14 13 14 15 17 20 21 23 25 27 28 30 31 30 31 32 30 29 29 30 30 29 28 27 27 26 26 25 26 25 24 23 23 23 23 22 23 24 25 26 27 28 28 27 25 22 20 19 19 22 26 28 28 28 29 29 29 29 30 31 31 30
14 14 13 13 14 16 18 20 22 24 25 26 28 29 30 32 31 28 26 28 29 29 28 27 26 26 26 25 25 25 25 25 24 24 24 23 22 22 23 23 25 26 27 27 27 26 25 23 22 21 22 24 27 30 31 31 31 31 31 30 29 29 30
14 14 13 13 13 13 14 16 18 20 22 23 24 26 29 30 29 26 25 26 27 26 25 25 25 25 24 24 24 25 24 24 24 23 23 23 22 21 21 22 23 25 26 26 26 26 26 25 24 24 24 24 26 28 30 32 33 34 33 31 29 28 29
13 13 13 13 13 12 12 12 14 15 16 18 20 22 24 25 24 23 22 23 23 23 23 23 23 23 22 22 23 23 23 23 22 22 22 22 22 21 21 21 22 23 24 24 25 26 26 27 27 26 26 26 27 28 29 31 33 34 35 35 34 33 32
12 12 13 13 12 12 11 11 11 11 12 13 15 17 19 19 19 19 19 20 21 21 22 22 22 21 21 21 22 22 21 21 21 20 20 20 21 21 20 20 20 21 22 22 23 24 25 26 28 28 28 28 28 29 30 31 31 33 34 35 35 36 35
12 12 12 12 11 11 11 10 10 10 10 11 12 14 15 16 16 17 17 18 19 20 21 21 20 20 20 21 21 20 20 20 20 20 20 20 20 20 20 20 20 20 21 21 22 23 24 25 26 28 29 29 30 30 31 31 32 33 34 34 35 35 36
Wind_Direction
284 285 286 287 288 289 290 292 294 297 300 303 304 306 308 311 311 311 312 313 310 304 297 287 275 265 256 248 244 241 239 237 238 238 238 239 240 240 241 242 243 244 243 241 240 239 239 238 236 233 232 232 231 229 228 228 228 228 229 230 232 233 233
283 284 285 286 287 287 288 291 293 295 298 301 302 303 305 308 309 309 310 312 311 305 300 296 286 273 263 254 247 243 240 238 238 239 239 239 240 241 242 243 243 244 245 244 242 239 238 239 238 235 233 232 233 231 229 228 228 227 227 228 229 230 232
281 282 284 285 286 286 287 289 291 294 296 299 299 299 302 306 307 306 306 309 311 307 302 300 295 283 268 257 250 245 241 238 237 238 239 239 239 241 241 242 243 243 244 245 244 241 239 238 237 236 234 232 232 232 232 231 229 228 227 227 228 228 229
278 280 282 283 284 285 286 287 289 292 294 296 296 297 300 304 303 301 301 304 307 307 302 298 295 288 273 260 252 247 243 239 236 236 238 239 239 240 240 241 242 242 243 245 246 244 242 240 237 236 234 233 232 231 232 232 231 230 229 228 228 228 228
277 278 279 281 282 282 283 285 287 289 291 293 293 294 298 301 298 295 294 296 302 305 303 295 289 283 276 265 256 250 243 238 235 234 235 237 238 238 239 240 240 242 244 246 247 247 246 244 241 237 235 234 233 232 231 231 231 231 231 230 229 228 228
275 276 277 279 280 281 281 283 285 286 288 289 290 292 296 298 294 289 288 289 294 299 300 294 284 277 272 265 257 249 241 233 228 228 229 231 233 234 236 238 240 242 244 247 249 249 249 248 246 242 238 236 235 234 232 230 230 230 231 231 231 231 229
274 275 276 277 277 279 280 281 283 283 284 285 286 289 293 294 290 285 285 284 285 291 294 292 285 274 268 262 255 248 241 235 228 225 226 227 230 232 235 238 240 242 245 247 249 251 252 252 250 248 243 239 237 236 235 232 231 229 229 230 231 232 232
273 273 274 275 275 276 278 280 281 280 281 282 284 286 289 291 288 283 283 282 281 282 286 289 288 280 269 262 257 253 247 242 237 232 230 229 231 233 236 239 242 244 247 249 251 252 253 254 254 252 249 245 241 239 237 236 234 232 230 229 230 231 232
272 272 273 272 273 275 276 278 278 277 278 280 281 283 287 290 287 282 281 280 278 277 277 280 283 281 275 266 259 256 253 250 246 241 238 235 234 235 237 240 244 247 250 253 254 256 256 256 256 256 255 251 247 244 241 239 239 237 233 230 229 229 230
270 271 271 270 270 272 274 275 275 275 276 278 280 281 285 288 287 283 280 276 273 272 270 270 271 272 272 268 261 256 253 253 252 249 246 243 240 239 240 241 243 246 251 255 257 259 259 260 260 260 259 257 254 251 246 242 242 242 239 236 233 231 229
269 269 269 268 268 269 271 272 272 271 273 276 278 279 282 285 284 283 281 275 270 267 265 265 264 264 265 264 262 258 254 253 253 252 251 248 246 244 243 242 244 245 248 252 256 259 260 261 262 262 261 261 259 255 251 247 245 245 244 242 240 235 232
269 269 267 267 268 267 267 268 268 269 270 273 276 278 281 282 278 275 273 268 265 263 261 261 261 261 262 261 258 256 256 256 255 253 250 248 247 247 246 245 244 245 247 250 254 256 257 259 261 261 260 260 260 257 254 250 248 246 245 244 244 241 235
269 268 267 267 267 266 265 264 264 266 268 269 272 275 280 281 277 274 269 261 256 255 256 257 257 257 258 258 257 255 257 259 258 257 255 251 249 248 249 248 247 246 247 248 250 253 254 255 256 256 255 255 257 257 253 248 246 245 246 246 247 246 240
268 268 267 267 267 266 264 260 261 263 265 265 267 271 275 277 277 278 277 267 253 248 250 254 255 256 255 256 257 257 258 261 260 260 260 259 258 256 255 254 251 250 248 248 248 250 252 252 252 252 250 247 251 254 251 247 243 242 245 245 244 244 240
267 266 266 266 266 265 262 257 257 260 261 262 264 267 269 271 273 278 281 277 264 252 251 251 251 254 254 255 256 257 258 260 262 263 264 265 266 265 263 261 258 256 254 251 250 249 249 249 249 250 248 243 244 249 249 246 242 239 239 239 237 237 236
267 266 266 266 265 265 261 255 254 257 258 258 260 262 263 265 269 275 280 282 277 265 260 256 254 254 255 256 259 261 261 262 263 265 268 271 271 268 265 266 267 264 260 255 254 252 249 248 247 247 247 243 241 245 246 244 241 238 233 230 230 233 234
269 267 265 265 265 264 259 252 251 253 254 255 258 260 260 262 267 273 277 280 283 278 271 267 265 264 261 260 261 263 264 265 264 264 266 268 267 264 264 267 268 266 263 260 256 253 250 248 246 244 245 242 238 239 240 238 237 233 225 219 223 227 227
271 268 265 264 263 262 257 249 247 250 251 253 256 258 259 262 268 273 275 275 279 282 281 277 274 273 269 263 258 257 259 262 263 263 262 260 260 260 262 262 261 262 265 266 263 258 253 250 246 243 242 239 235 233 232 232 232 224 213 213 218 221 222
271 269 266 264 263 262 257 246 243 247 249 251 253 256 260 264 269 272 271 271 273 277 281 282 280 280 279 273 264 254 251 255 259 262 262 259 256 257 259 261 263 265 267 269 269 265 260 254 248 244 240 236 233 230 227 228 226 216 208 210 213 216 220
272 269 267 266 264 262 256 245 239 241 246 249 252 255 260 265 269 268 268 270 270 269 272 276 279 282 284 282 275 262 251 247 251 257 261 260 258 257 256 260 265 268 271 272 272 269 264 257 251 246 240 234 230 228 226 226 223 215 208 207 209 213 219
272 269 267 267 265 261 255 246 237 236 242 247 251 255 259 264 267 266 267 270 269 264 263 267 273 278 282 283 280 270 257 247 244 251 256 258 259 259 255 256 263 269 273 275 275 272 267 259 252 247 242 234 227 226 226 224 220 214 208 206 208 211 215
273 269 267 267 266 261 254 246 238 234 238 244 250 254 257 262 265 266 268 272 271 266 263 264 268 274 278 281 281 275 263 251 245 247 252 255 259 262 260 260 265 269 271 271 272 271 267 260 253 247 243 237 229 226 226 222 217 213 208 207 209 211 213
274 270 267 267 266 262 254 246 240 236 236 242 248 252 256 260 264 266 269 272 272 269 266 265 267 271 275 278 278 277 270 258 247 243 244 247 251 255 259 262 263 262 264 267 269 268 264 259 253 247 243 239 233 227 223 220 216 214 210 209 211 213 215
275 271 268 267 265 261 254 247 242 239 238 240 245 251 256 260 264 267 269 272 273 272 270 267 266 268 271 273 273 274 274 268 256 246 242 241 240 241 246 253 256 258 261 266 268 267 266 262 253 245 240 239 235 228 221 216 215 215 213 212 213 215 218
275 271 268 266 265 260 253 246 242 240 240 242 245 250 256 259 262 265 269 272 273 273 272 269 266 266 266 268 269 269 270 272 268 259 251 246 244 243 244 248 253 257 262 266 266 265 269 269 258 244 237 235 231 224 218 215 215 217 216 216 216 217 219
275 271 268 267 266 259 251 245 242 240 242 245 247 251 255 258 260 263 266 270 272 273 272 271 269 268 266 264 265 265 264 267 269 267 259 251 248 249 249 250 254 258 262 266 266 262 264 271 260 242 231 229 226 221 218 217 218 220 221 221 221 222 223
275 272 269 269 267 257 247 243 242 242 243 246 250 253 255 258 260 262 265 268 272 273 273 272 271 270 267 264 263 262 262 261 263 265 263 256 250 248 248 249 253 257 261 265 266 261 258 262 256 238 225 224 223 220 218 218 220 223 225 226 226 227 228
275 272 269 268 264 256 245 239 241 245 246 248 251 254 256 259 261 263 265 268 270 272 272 271 270 269 268 265 263 261 261 260 259 261 263 259 253 248 245 245 248 252 257 261 264 262 255 248 245 237 226 220 218 214 212 214 219 224 226 227 229 230 231
274 272 271 268 262 251 240 235 238 245 249 252 254 255 258 261 263 264 266 268 271 272 271 269 268 268 267 266 263 262 261 260 259 261 262 260 255 249 245 243 244 248 253 256 258 260 254 243 236 232 225 217 213 211 209 212 219 226 229 230 231 232 233
275 274 271 264 253 245 238 235 237 242 248 253 256 258 260 261 262 263 266 268 269 270 269 268 268 266 265 264 262 261 262 261 260 263 264 261 256 251 247 244 243 245 250 254 255 255 253 246 236 229 223 218 216 215 215 217 220 224 227 229 231 233 235
279 274 267 258 252 249 246 243 242 243 247 251 256 259 260 260 260 261 263 264 265 266 266 267 267 265 263 261 260 260 261 261 261 263 264 260 254 250 248 247 246 246 248 252 254 253 251 247 242 235 229 224 222 220 220 220 223 225 226 228 231 234 236
279 272 265 261 258 254 252 250 247 247 248 250 253 256 258 260 261 262 261 262 263 264 264 264 263 262 260 258 256 257 258 259 259 259 258 257 252 248 245 245 246 247 247 249 252 254 252 248 244 240 237 232 229 227 224 223 224 226 228 231 235 237 238
276 272 269 266 264 261 257 254 250 250 251 252 253 254 256 259 262 263 262 262 263 263 263 261 259 258 256 254 252 252 252 254 255 254 252 251 250 248 245 243 243 244 245 247 249 252 253 253 249 245 240 236 234 233 231 230 229 229 230 232 234 237 238
274 271 268 266 264 264 264 259 255 252 251 251 253 255 256 259 262 263 263 263 264 264 262 260 257 255 253 250 249 249 248 248 249 249 249 248 248 248 247 245 244 244 245 246 248 249 252 254 254 252 248 243 238 235 234 233 234 235 235 234 234 234 235
272 267 265 263 262 262 263 262 260 258 255 253 254 257 259 262 263 263 263 264 265 265 262 259 256 254 251 249 248 248 247 246 245 245 245 246 246 247 247 247 246 246 245 246 247 248 249 251 252 253 253 251 247 244 239 236 235 235 236 237 236 236 236
271 266 265 264 262 263 266 268 270 268 264 260 258 259 263 265 267 268 268 267 267 265 262 258 254 252 249 248 248 248 247 245 244 243 242 242 244 245 246 247 247 247 248 248 248 248 249 250 250 250 251 251 251 249 247 244 240 237 236 236 236 237 237